GW5470 Weather Reports


time (UTC)temp
C
wind
direction
speed
KPH
gust
KPH
rain 1hr
cm
rain 24hr
cm
rain mn
cm
humidity
%
barometer
mb
20260905173158 27 217 1.6 3.2 0.00 3.28 3.28 71 1014.7
20260905172657 28 122 3.2 3.2 0.00 3.28 3.28 71 1014.7
20260905172157 28 205 3.2 3.2 0.00 3.28 3.28 69 1014.7
20260905171653 27 204 0.0 1.6 0.00 3.28 3.28 74 1014.5
20260905171148 27 194 1.6 1.6 0.00 3.28 3.28 75 1014.9
20260905170646 26 204 0.0 1.6 0.00 3.28 3.28 75 1014.7
20260905170140 27 176 1.6 1.6 0.00 3.28 3.28 73 1014.8
20260905165640 27 191 0.0 0.0 0.00 3.28 3.28 78 1014.8
20260905165136 27 207 3.2 3.2 0.00 3.28 3.28 75 1015.0
20260905164631 26 186 1.6 1.6 0.00 3.28 3.28 78 1014.9
20260905164130 26 120 6.4 9.7 0.00 3.28 3.28 78 1014.9
20260905163626 26 189 1.6 1.6 0.00 3.28 3.28 80 1015.3
20260905163122 26 202 0.0 0.0 0.00 3.28 3.28 81 1015.1
20260905162618 26 191 1.6 3.2 0.00 3.28 3.28 82 1014.9
20260905162117 26 229 3.2 3.2 0.00 3.28 3.28 84 1015.0
20260905161617 26 215 1.6 1.6 0.00 3.28 3.28 81 1014.9
20260905161115 26 212 1.6 3.2 0.00 3.28 3.28 81 1014.8
20260905160615 26 207 0.0 1.6 0.00 3.28 3.28 83 1014.8
20260905160115 26 177 1.6 1.6 0.00 3.28 3.28 80 1014.9
20260905155609 25 206 1.6 1.6 0.00 3.28 3.28 83 1015.0
20260905155108 26 201 1.6 1.6 0.00 3.28 3.28 83 1015.1
20260905154608 26 179 3.2 6.4 0.00 3.28 3.28 80 1015.0
20260905154104 26 198 0.0 0.0 0.00 3.28 3.28 79 1014.8
20260905153559 26 198 3.2 3.2 0.00 3.28 3.28 82 1014.7
20260905153054 25 218 4.8 4.8 0.00 3.28 3.28 83 1014.7
20260905152549 26 196 1.6 3.2 0.00 3.28 3.28 84 1014.9
20260905152044 25 194 1.6 3.2 0.00 3.28 3.28 88 1014.8
20260905151539 25 186 3.2 3.2 0.00 3.28 3.28 85 1014.8
20260905151034 25 190 3.2 3.2 0.00 3.28 3.28 84 1014.8
20260905150529 24 189 1.6 1.6 0.00 3.28 3.28 87 1014.7
20260905150027 23 196 1.6 1.6 0.00 3.28 3.28 88 1014.9
20260905145521 24 170 4.8 4.8 0.00 3.28 3.28 85 1014.8
20260905145020 23 204 3.2 4.8 0.00 3.28 3.28 88 1014.7
20260905144515 23 180 3.2 4.8 0.00 3.28 3.28 88 1014.5
20260905144014 23 176 1.6 1.6 0.00 3.28 3.28 89 1014.5
20260905143514 23 208 1.6 1.6 0.00 3.28 3.28 93 1014.5
20260905143009 22 179 0.0 1.6 0.00 3.28 3.28 95 1014.8
20260905142507 22 171 1.6 1.6 0.00 3.28 3.28 95 1014.5
20260905142003 22 153 1.6 3.2 0.00 3.28 3.28 97 1014.7
20260905141457 22 152 1.6 1.6 0.00 3.28 3.28 99 1014.5
20260905140954 22 197 1.6 1.6 0.00 3.28 3.28 99 1014.5
20260905140448 21 198 0.0 0.0 0.00 3.28 3.28 99 1014.3
20260905135947 21 145 3.2 3.2 0.00 3.28 3.28 99 1014.5
20260905135443 21 204 1.6 3.2 0.00 3.28 3.28 99 1014.4
20260905134938 21 185 0.0 1.6 0.00 3.28 3.28 99 1014.5
20260905134438 21 225 1.6 3.2 0.00 3.28 3.28 99 1014.3
20260905133931 21 188 0.0 0.0 0.00 3.28 3.28 99 1014.2
20260905133426 21 207 0.0 0.0 0.00 3.28 3.28 99 1014.7
20260905132926 21 207 0.0 1.6 0.00 3.28 3.28 99 1014.2
20260905132421 21 199 0.0 1.6 0.00 3.28 3.28 99 1014.1
20260905131916 21 121 3.2 4.8 0.00 3.28 3.28 99 1013.7
20260905131412 21 175 0.0 0.0 0.00 3.28 3.28 99 1014.3
20260905130906 21 176 0.0 1.6 0.00 3.28 3.28 99 1014.5
20260905130405 21 176 0.0 0.0 0.00 3.28 3.28 99 1015.0
20260905125900 21 176 0.0 0.0 0.00 3.28 3.28 99 1015.0
20260905125355 21 176 1.6 1.6 0.00 3.28 3.28 99 1015.0
20260905124851 20 176 0.0 0.0 0.00 3.28 3.28 99 1015.3
20260905124348 20 179 0.0 0.0 0.00 3.28 3.28 99 1015.7
20260905123847 20 183 0.0 0.0 0.18 3.28 3.28 99 1015.7
20260905123344 20 185 0.0 1.6 0.18 3.28 3.28 99 1015.5
20260905122844 20 184 0.0 0.0 0.18 3.28 3.28 99 1015.4
20260905122343 20 203 0.0 1.6 0.00 3.25 3.25 99 1015.5
20260905121838 20 204 0.0 1.6 0.00 3.25 3.25 99 1015.6
20260905121335 20 204 0.0 0.0 0.00 3.25 3.25 99 1015.4
20260905120833 20 224 0.0 1.6 0.00 3.25 3.25 99 1015.3
20260905120328 20 294 3.2 4.8 0.00 3.25 3.25 99 1015.2
20260905115824 20 196 0.0 0.0 0.00 3.25 3.25 99 1015.3
20260905115324 20 183 0.0 0.0 0.00 3.25 3.25 99 1015.5
20260905114823 20 36 4.8 6.4 0.18 3.25 3.25 99 1015.6
20260905114322 20 236 3.2 3.2 0.18 3.25 3.25 99 1015.7
20260905113821 20 236 3.2 4.8 0.13 3.23 3.23 99 1015.8
20260905113317 21 159 1.6 1.6 0.30 3.23 3.23 99 1015.8
20260905112813 21 170 3.2 3.2 0.30 3.20 3.20 99 1015.8
20260905112307 21 70 6.4 9.7 0.43 3.17 3.17 99 1015.7
20260905111802 21 98 3.2 3.2 0.79 3.15 3.15 99 1015.7
20260905111257 21 172 1.6 3.2 1.37 3.12 3.12 99 1016.1
20260905110756 21 331 6.4 6.4 3.66 3.02 3.02 99 1016.4
20260905110250 21 151 1.6 1.6 3.48 2.90 2.90 99 1016.6
20260905105746 21 41 8.0 11.3 1.68 2.46 2.46 99 1016.5
20260905105245 21 162 1.6 3.2 1.07 2.31 2.31 99 1016.3
20260905104739 21 16 3.2 3.2 0.00 2.13 2.13 99 1014.5
20260905104236 21 190 1.6 1.6 0.00 2.13 2.13 99 1014.0
20260905103730 21 186 0.0 0.0 0.00 2.13 2.13 99 1014.0
20260905103226 21 172 0.0 0.0 0.13 2.13 2.13 99 1013.9
20260905102727 21 172 0.0 0.0 0.13 2.13 2.13 99 1013.9
20260905102223 21 171 0.0 0.0 0.18 2.11 2.11 99 1014.1
20260905101722 21 184 0.0 0.0 0.61 2.11 2.11 99 1014.7
20260905101221 21 326 4.8 4.8 0.43 2.08 2.08 99 1014.7
20260905100717 21 165 1.6 1.6 0.18 2.01 2.01 99 1014.7
20260905100212 22 14 6.4 6.4 0.36 2.01 2.01 99 1014.8
20260905095711 22 179 0.0 0.0 2.29 1.98 1.98 99 1014.5
20260905095207 21 174 1.6 1.6 5.94 1.96 1.96 99 1014.7
20260905094706 21 136 1.6 1.6 7.01 1.65 1.65 99 1014.8
20260905094201 22 199 0.0 1.6 5.64 0.99 0.99 99 1015.2
20260905093701 22 145 4.8 4.8 2.11 0.36 0.36 99 1014.9
20260905093157 22 205 1.6 1.6 0.13 0.03 0.03 99 1014.3
20260905092652 22 181 0.0 1.6 0.00 0.00 0.00 99 1014.0
20260905092148 22 85 3.2 4.8 0.00 0.00 0.00 99 1013.7
20260905091647 22 196 0.0 0.0 0.00 0.00 0.00 99 1013.2
20260905091148 22 196 0.0 0.0 0.00 0.00 0.00 99 1013.4
20260905090647 22 195 0.0 0.0 0.00 0.00 0.00 99 1013.1
20260905090143 22 196 0.0 1.6 0.00 0.00 0.00 99 1012.9
20260905085641 22 195 1.6 1.6 0.00 0.00 0.00 99 1013.0
20260905085137 22 196 0.0 0.0 0.00 0.00 0.00 99 1013.2
20260905084636 22 195 0.0 0.0 0.00 0.00 0.00 99 1013.1
20260905084131 22 195 0.0 0.0 0.00 0.00 0.00 99 1013.3
20260905083626 22 195 0.0 0.0 0.00 0.00 0.00 99 1013.1
20260905083123 22 195 0.0 0.0 0.00 0.00 0.00 99 1013.0
20260905082618 22 195 0.0 0.0 0.00 0.00 0.00 99 1013.2
20260905082114 22 195 0.0 0.0 0.00 0.00 0.00 99 1013.4
20260905081613 22 195 0.0 0.0 0.00 0.00 0.00 99 1013.2
20260905081108 22 195 0.0 0.0 0.00 0.00 0.00 99 1013.2
20260905080608 22 195 0.0 1.6 0.00 0.00 0.00 99 1013.5
20260905075602 22 195 0.0 0.0 0.00 0.00 0.00 99 1013.4
20260905075101 22 195 0.0 0.0 0.00 0.00 0.00 99 1013.3
20260905074601 22 195 0.0 0.0 0.00 0.00 0.00 99 1013.6
20260905074057 21 195 0.0 0.0 0.00 0.00 0.00 99 1013.7
20260905073552 21 195 0.0 0.0 0.00 0.00 0.00 99 1013.5
20260905073048 21 195 0.0 0.0 0.00 0.00 0.00 99 1013.3
20260905072547 21 195 0.0 0.0 0.00 0.00 0.00 99 1013.5
20260905072043 21 195 0.0 0.0 0.00 0.00 0.00 99 1013.5
20260905071539 21 195 0.0 0.0 0.00 0.00 0.00 99 1013.7
20260905071034 21 195 0.0 0.0 0.00 0.00 0.00 99 1013.5
20260905070529 21 195 0.0 0.0 0.00 0.00 0.00 99 1013.4
20260905070025 21 195 0.0 0.0 0.00 0.00 0.00 99 1013.6
20260905065522 21 195 0.0 0.0 0.00 0.00 0.00 99 1013.6
20260905065018 21 195 0.0 0.0 0.00 0.00 0.00 99 1013.9
20260905064513 21 195 0.0 0.0 0.00 0.00 0.00 99 1013.9
20260905064009 22 195 0.0 0.0 0.00 0.00 0.00 99 1014.0
20260905063508 22 195 0.0 0.0 0.00 0.00 0.00 99 1014.0
20260905063004 22 195 0.0 0.0 0.00 0.00 0.00 99 1014.0
20260905062503 22 195 0.0 0.0 0.00 0.00 0.00 99 1014.2
20260905061959 22 195 0.0 0.0 0.00 0.00 0.00 99 1014.2
20260905061454 22 195 0.0 0.0 0.00 0.00 0.00 99 1014.1
20260905060953 22 195 0.0 0.0 0.00 0.00 0.00 99 1014.2
20260905060449 22 195 0.0 0.0 0.00 0.00 0.00 99 1014.3
20260905055948 22 195 0.0 0.0 0.00 0.00 0.00 99 1014.4
20260905055449 22 195 0.0 0.0 0.00 0.00 0.00 99 1014.7
20260905054949 22 195 0.0 0.0 0.00 0.00 0.00 99 1014.9
20260905054444 22 195 0.0 0.0 0.00 0.00 0.00 99 1014.8
20260905053944 22 195 0.0 0.0 0.00 0.00 0.00 99 1014.9
20260905053439 22 195 0.0 0.0 0.00 0.00 0.00 99 1015.1
20260905052935 22 195 0.0 0.0 0.00 0.00 0.00 99 1015.2
20260905052434 22 195 0.0 0.0 0.00 0.00 0.00 99 1015.2
20260905051934 22 195 0.0 0.0 0.00 0.00 0.00 99 1015.3
20260905051429 21 195 0.0 0.0 0.00 0.00 0.00 99 1015.3
20260905050927 22 195 0.0 0.0 0.00 0.00 0.00 99 1015.2
20260905050422 22 195 0.0 0.0 0.00 0.00 0.00 99 1015.3
20260905045918 22 195 0.0 0.0 0.00 0.00 0.00 99 1015.1
20260905045413 22 195 0.0 0.0 0.00 0.00 0.00 99 1015.3
20260905044909 22 195 0.0 0.0 0.00 0.00 0.00 99 1015.5
20260905044404 22 195 0.0 0.0 0.00 0.00 0.00 99 1015.4
20260905043902 22 195 0.0 0.0 0.00 0.00 0.00 99 1015.6
20260905043357 22 195 0.0 0.0 0.00 0.00 0.00 99 1015.6
20260905042857 22 195 0.0 0.0 0.00 0.00 0.00 99 1015.4
20260905042352 22 195 0.0 0.0 0.00 0.00 0.00 99 1015.2
20260905041846 22 195 0.0 0.0 0.00 0.00 0.00 99 1015.2
20260905041344 22 195 0.0 0.0 0.00 0.00 0.00 99 1015.2
20260905040843 22 195 0.0 0.0 0.00 0.00 0.00 99 1015.1
20260905040342 22 195 0.0 0.0 0.00 0.00 0.00 99 1015.1
20260905035842 22 195 0.0 0.0 0.00 0.03 0.03 99 1015.2
20260905035337 22 195 0.0 0.0 0.00 0.03 0.03 99 1015.4
20260905034834 22 195 0.0 0.0 0.00 0.03 0.03 99 1015.3
20260905034329 22 195 0.0 0.0 0.00 0.03 0.03 99 1015.3
20260905033828 22 195 0.0 0.0 0.00 0.03 0.03 99 1015.4
20260905033323 22 195 0.0 0.0 0.00 0.03 0.03 99 1015.4
20260905032822 22 195 0.0 0.0 0.00 0.03 0.03 99 1015.4
20260905032318 22 195 0.0 0.0 0.00 0.03 0.03 99 1015.6
20260905031813 22 195 0.0 0.0 0.00 0.03 0.03 99 1015.3
20260905031309 22 195 0.0 0.0 0.00 0.03 0.03 99 1015.5
20260905030804 22 195 0.0 0.0 0.00 0.03 0.03 99 1015.4
20260905030300 22 195 0.0 0.0 0.00 0.03 0.03 99 1015.5
20260905025759 23 195 0.0 1.6 0.00 0.03 0.03 99 1015.4
20260905025255 23 195 0.0 0.0 0.00 0.03 0.03 99 1015.4
20260905024750 23 195 0.0 0.0 0.00 0.03 0.03 99 1015.4
20260905024246 23 195 0.0 0.0 0.00 0.03 0.03 99 1015.0
20260905023747 23 195 0.0 0.0 0.00 0.03 0.03 99 1015.5
20260905023242 23 195 0.0 0.0 0.00 0.03 0.03 99 1015.5
20260905022741 23 195 0.0 0.0 0.00 0.03 0.03 99 1015.4
20260905022237 23 195 0.0 0.0 0.00 0.03 0.03 99 1015.3
20260905021737 23 195 0.0 0.0 0.00 0.03 0.03 99 1015.4
20260905021232 23 195 0.0 0.0 0.00 0.03 0.03 99 1015.3
20260905020731 23 195 0.0 0.0 0.00 0.03 0.03 99 1015.4
20260905020227 23 195 0.0 0.0 0.00 0.03 0.03 99 1015.3
20260905015725 23 195 0.0 0.0 0.00 0.03 0.03 99 1015.3
20260905015220 23 195 0.0 0.0 0.00 0.03 0.03 99 1015.3
20260905014719 23 195 0.0 0.0 0.00 0.03 0.03 99 1015.3
20260905014215 23 195 0.0 0.0 0.00 0.03 0.03 98 1015.3
20260905013710 23 195 0.0 0.0 0.00 0.03 0.03 98 1015.2
20260905013206 23 196 0.0 0.0 0.00 0.03 0.03 98 1015.1
20260905012701 23 196 0.0 0.0 0.00 0.03 0.03 98 1015.0
20260905012157 23 196 0.0 0.0 0.00 0.03 0.03 98 1014.9
20260905011654 24 196 0.0 0.0 0.00 0.03 0.03 98 1015.0
20260905011149 24 196 0.0 0.0 0.00 0.03 0.03 98 1015.1
20260905010644 24 196 0.0 0.0 0.00 0.03 0.03 98 1015.0
20260905010140 24 196 0.0 0.0 0.00 0.03 0.03 98 1014.8
20260905005636 24 196 0.0 0.0 0.00 0.03 0.03 98 1014.9
20260905005131 24 196 0.0 0.0 0.00 0.03 0.03 97 1015.0
20260905004631 24 196 0.0 0.0 0.00 0.03 0.03 97 1014.9
20260905004126 25 196 0.0 0.0 0.00 0.03 0.03 97 1014.9
20260905003622 25 196 0.0 0.0 0.00 0.03 0.03 97 1014.5
20260905003117 25 196 0.0 0.0 0.00 0.03 0.03 97 1014.4
20260905002613 25 196 0.0 0.0 0.00 0.03 0.03 97 1014.5
20260905002107 25 196 0.0 0.0 0.00 0.03 0.03 96 1014.4
20260905001603 25 196 0.0 0.0 0.00 0.03 0.03 96 1014.4
20260905001102 25 196 0.0 0.0 0.00 0.03 0.03 96 1014.7
20260905000557 25 196 0.0 0.0 0.00 0.03 0.03 95 1014.3
20260905000054 25 196 0.0 0.0 0.00 0.03 0.03 95 1014.4
20260904235553 25 196 0.0 0.0 0.00 0.03 0.03 95 1014.2
20260904235053 26 196 0.0 0.0 0.00 0.03 0.03 95 1014.4
20260904234548 26 196 0.0 0.0 0.00 0.03 0.03 94 1014.4
20260904234045 26 196 0.0 0.0 0.00 0.03 0.03 94 1014.2
20260904233545 26 196 0.0 0.0 0.00 0.03 0.03 94 1014.2
20260904233041 26 182 0.0 0.0 0.00 0.03 0.03 94 1014.1
20260904232537 26 182 0.0 0.0 0.00 0.03 0.03 93 1014.2
20260904232033 26 182 0.0 0.0 0.00 0.03 0.03 93 1014.2
20260904231530 26 181 0.0 1.6 0.00 0.03 0.03 92 1014.3
20260904231030 26 188 0.0 0.0 0.00 0.03 0.03 93 1014.4
20260904230528 26 188 0.0 0.0 0.00 0.03 0.03 93 1014.3
20260904230025 26 196 1.6 1.6 0.00 0.03 0.03 93 1014.1
20260904225522 26 206 1.6 1.6 0.00 0.03 0.03 92 1013.7
20260904225021 26 204 0.0 1.6 0.00 0.03 0.03 92 1013.2
20260904224517 26 203 0.0 0.0 0.00 0.03 0.03 91 1013.2
20260904224017 26 203 0.0 0.0 0.00 0.03 0.03 90 1013.4
20260904223515 27 203 1.6 1.6 0.00 0.03 0.03 89 1013.6
20260904223012 27 212 0.0 0.0 0.00 0.03 0.03 89 1013.5
20260904222507 27 213 0.0 0.0 0.00 0.03 0.03 89 1013.6
20260904222002 27 213 0.0 0.0 0.00 0.03 0.03 89 1013.7
20260904221456 27 213 0.0 0.0 0.00 0.03 0.03 89 1013.9
20260904220952 27 214 0.0 0.0 0.00 0.03 0.03 88 1014.3
20260904220451 28 214 0.0 0.0 0.00 0.03 0.03 86 1014.4
20260904215946 27 214 0.0 0.0 0.00 0.03 0.03 85 1014.8
20260904215441 28 214 0.0 0.0 0.00 0.03 0.03 83 1014.8
20260904214937 28 214 0.0 0.0 0.00 0.03 0.03 81 1014.8
20260904214432 28 214 0.0 0.0 0.00 0.03 0.03 83 1014.5
20260904213927 28 214 0.0 0.0 0.00 0.03 0.03 81 1014.7
20260904213421 29 214 0.0 0.0 0.00 0.03 0.03 79 1014.8
20260904212917 28 214 0.0 0.0 0.00 0.03 0.03 82 1014.9
20260904212416 29 214 0.0 1.6 0.00 0.03 0.03 78 1015.3
20260904211912 30 214 0.0 0.0 0.00 0.03 0.03 76 1015.4
20260904211407 30 215 0.0 0.0 0.00 0.03 0.03 72 1014.8
20260904210902 30 190 0.0 0.0 0.00 0.03 0.03 70 1015.0
20260904210401 31 207 1.6 1.6 0.00 0.03 0.03 69 1014.9
20260904205858 31 224 3.2 3.2 0.00 0.03 0.03 65 1014.9
20260904205353 31 262 1.6 1.6 0.00 0.03 0.03 66 1015.0
20260904204849 31 62 1.6 1.6 0.00 0.03 0.03 65 1014.8
20260904204346 31 164 1.6 1.6 0.00 0.03 0.03 68 1015.0
20260904203841 31 219 1.6 3.2 0.00 0.03 0.03 69 1015.2
20260904203338 30 213 0.0 0.0 0.00 0.03 0.03 69 1015.2
20260904202833 30 147 1.6 3.2 0.00 0.03 0.03 71 1015.5
20260904202329 30 223 1.6 1.6 0.00 0.03 0.03 70 1015.5
20260904201825 31 13 6.4 6.4 0.00 0.03 0.03 70 1015.5
20260904201324 31 262 6.4 6.4 0.00 0.03 0.03 70 1015.6
20260904200819 31 192 1.6 1.6 0.00 0.03 0.03 70 1015.5
20260904200318 31 219 1.6 1.6 0.00 0.03 0.03 71 1015.5
20260904195813 31 180 1.6 1.6 0.00 0.03 0.03 71 1015.5
20260904195311 30 213 1.6 1.6 0.00 0.03 0.03 71 1015.7
20260904194806 30 203 0.0 1.6 0.00 0.03 0.03 75 1015.7
20260904194306 29 212 1.6 1.6 0.00 0.03 0.03 77 1015.9
20260904193801 30 212 1.6 1.6 0.00 0.03 0.03 76 1015.8
20260904193256 30 229 1.6 1.6 0.00 0.03 0.03 78 1016.0
20260904192751 30 183 0.0 0.0 0.00 0.03 0.03 77 1015.7
20260904192247 30 193 0.0 0.0 0.00 0.03 0.03 75 1015.8
20260904191744 30 191 0.0 0.0 0.00 0.03 0.03 76 1015.8
20260904191240 29 196 0.0 0.0 0.00 0.03 0.03 80 1016.1
20260904190736 29 169 1.6 3.2 0.00 0.03 0.03 81 1016.2
20260904190231 29 193 0.0 0.0 0.00 0.03 0.03 80 1016.3
20260904185728 28 210 0.0 0.0 0.00 0.03 0.03 82 1016.3
20260904185228 28 212 1.6 3.2 0.00 0.03 0.03 83 1016.3
20260904184726 28 179 1.6 1.6 0.00 0.03 0.03 81 1016.1
20260904184223 28 152 3.2 3.2 0.00 0.03 0.03 82 1016.0
20260904183719 27 210 0.0 0.0 0.00 0.03 0.03 87 1016.0
20260904183218 27 211 0.0 1.6 0.00 0.03 0.03 87 1015.9
20260904181757 27 211 0.0 0.0 0.00 0.03 0.03 86 1016.2
20260904181257 27 211 0.0 0.0 0.00 0.03 0.03 86 1016.2
20260904180752 27 211 0.0 0.0 0.00 0.03 0.03 86 1016.2
20260904180248 27 211 1.6 1.6 0.00 0.03 0.03 84 1016.5
20260904175747 27 212 1.6 1.6 0.00 0.03 0.03 80 1016.3
20260904175245 28 201 0.0 1.6 0.00 0.03 0.03 78 1015.8
20260904174740 28 173 1.6 3.2 0.00 0.03 0.03 77 1016.2
20260904174236 28 70 3.2 3.2 0.00 0.03 0.03 76 1016.9
20260904173732 28 37 6.4 9.7 0.18 0.03 0.03 74 1017.0
20260904173232 30 357 9.7 14.5 0.18 0.03 0.03 72 1017.1